This is the latest recevied weather packets stored in our database for station/object WX7FGZ-7. If no packets are shown the sender has not sent any weather packets the latest 10 day(s).
| Time | Temp. | Humidity | Pressure | Rain* | Wind** | Luminosity | Snow |
|---|---|---|---|---|---|---|---|
| 1777622251 | 10° C | 29% | 1015.7 hPa | 0 mm | - | - | - |
| 1777622090 | 9.44° C | 30% | 1015.5 hPa | 0 mm | - | - | - |
| 1777621957 | 10.56° C | 28% | 1015.5 hPa | 0 mm | - | - | - |
| 1777621791 | 10° C | 29% | 1015.7 hPa | 0 mm | - | - | - |
| 1777621518 | 10.56° C | 28% | 1015.5 hPa | 0 mm | - | - | - |
| 1777620897 | 11.11° C | 27% | 1015.4 hPa | 0 mm | - | - | - |
| 1777620865 | 11.11° C | 27% | 1015.4 hPa | 0 mm | - | - | - |
| 1777620590 | 11.11° C | 27% | 1015.4 hPa | 0 mm | - | - | - |
| 1777620390 | 11.11° C | 26% | 1015.3 hPa | 0 mm | - | - | - |
| 1777620296 | 11.11° C | 27% | 1015.3 hPa | 0 mm | - | - | - |
| 1777619994 | 11.11° C | 26% | 1015.3 hPa | 0 mm | - | - | - |
| 1777619691 | 11.67° C | 27% | 1015.2 hPa | 0 mm | - | - | - |
| 1777619390 | 11.67° C | 26% | 1015.2 hPa | 0 mm | - | - | - |
| 1777619138 | 11.67° C | 26% | 1015.1 hPa | 0 mm | - | - | - |
| 1777618792 | 11.67° C | 26% | 1015.1 hPa | 0 mm | - | - | - |
| 1777618667 | 11.67° C | 26% | 1015 hPa | 0 mm | - | - | - |
| 1777618191 | 11.67° C | 26% | 1015 hPa | 0 mm | - | - | - |
| 1777617992 | 11.67° C | 26% | 1014.8 hPa | 0 mm | - | - | - |
| 1777617890 | 11.67° C | 26% | 1015 hPa | 0 mm | - | - | - |
| 1777617590 | 11.67° C | 26% | 1014.8 hPa | 0 mm | - | - | - |
| 1777617288 | 11.67° C | 26% | 1014.8 hPa | 0 mm | - | - | - |
| 1777616992 | 11.67° C | 26% | 1014.8 hPa | 0 mm | - | - | - |
| 1777616764 | 12.22° C | 26% | 1014.7 hPa | 0 mm | - | - | - |
| 1777616390 | 12.22° C | 26% | 1014.7 hPa | 0 mm | - | - | - |
| 1777616240 | 12.22° C | 25% | 1014.9 hPa | 0 mm | - | - | - |
* Rain latest hour (hover to see other rain measurements)
** Current wind speed in m/s (hover to see current wind gust speed)